YUNYAO-1 19 (58759 NORAD) Tracking and Keplerian Element Data

This shows tracking and keplerian element data for the satellite.

Feedback or suggestion? Click here.




ElementValue
Catalog58759
NameYUNYAO-1 19
Epoch Orbit26
Epoch Day12.91122703
Epoch Year2024
RAAN163.6282
Inclination49.9822
Eccentricity0.0013866
Argument of Perigee293.9783
Mean Anonmoly65.972
Mean Motion15.25813167
Decay Rate0.00023539
L11 58759U 24009B 24012.91122703 .00023539 00000+0 91467-3 0 9994
L22 58759 49.9822 163.6282 0013866 293.9783 65.9720 15.25813167 269



Live tracking and technical data element details for YUNYAO-1 19 (NORAD 58759). YUNYAO-1 19 can be tracked NOW for your location showing map with azimuth and elevation plus other details from your city location.







IsCatalogInMostPopularTable: catalog: 58759, numindb: 27
Update: records affected: 1



GetName: 58759 YUNYAO-1 19

Hit Count: updated at: Wed, 17 Apr 2024 02:51:47 GMT